Simultaneous Nadir Overpasses (SNOs) Predictions

Prediction of SNOs between AQUA and METOP-C Satellite Orbit:

Table of predicted SNOs for the next 14.0 days since TLE Epoch: 10/7/2023
Index Date (AQUA) Time (AQUA) Lat,Lon (AQUA) SZA (AQUA ) Date (METOP-C) Time (METOP-C) Lat,Lon (METOP-C) SZA (METOP-C ) Distance(km) Time Diff (sec)
1 10/09/2023 16:46:35 -74.76, 104.91 98.98 10/09/2023 16:45:35 -74.78, 105.00 98.96 3.16 60
2 10/09/2023 17:36:01 74.82, -87.57 81.09 10/09/2023 17:36:14 74.80, -87.59 81.08 1.35 13
3 10/09/2023 18:25:37 -75.47, 78.29 98.23 10/09/2023 18:26:42 -75.48, 81.69 98.23 94.92 65
4 10/12/2023 09:49:01 74.75, 29.37 82.04 10/12/2023 09:47:56 74.75, 29.35 82.04 0.49 65
5 10/12/2023 10:38:25 -74.81,-163.13 97.89 10/12/2023 10:38:37 -74.82,-163.15 97.89 0.84 12
6 10/12/2023 11:27:59 75.27, 3.29 82.59 10/12/2023 11:29:06 75.31, 5.61 82.63 65.68 67
7 10/15/2023 02:51:23 -74.76, -46.20 96.95 10/15/2023 02:50:19 -74.76, -46.23 96.95 0.82 64
8 10/15/2023 03:40:49 74.82, 121.29 83.13 10/15/2023 03:40:57 74.81, 121.26 83.13 0.99 8
9 10/15/2023 04:30:22 -75.32, -72.42 96.35 10/15/2023 04:31:29 -75.31, -69.97 96.36 68.84 67
10 10/17/2023 19:53:45 74.78,-121.81 84.07 10/17/2023 19:52:38 74.78,-121.74 84.08 2.09 67
11 10/17/2023 20:43:08 -74.83, 45.71 95.87 10/17/2023 20:43:19 -74.81, 45.67 95.89 2.50 11
12 10/17/2023 21:32:41 75.25,-147.77 84.57 10/17/2023 21:33:49 75.24,-145.76 84.57 56.88 68
13 10/20/2023 12:56:02 -74.80, 162.60 94.93 10/20/2023 12:55:00 -74.77, 162.65 94.96 3.15 62
14 10/20/2023 13:45:27 74.82, -29.81 85.11 10/20/2023 13:45:38 74.81, -29.90 85.10 2.90 11



Historial Predications of SNOs between AQUA and METOP-C
